User: anonymous
Location: Caltech
(34.1382°N, 118.1253°W)
Time: 12:53:31
(UTC-07:00)
Language:

KITSAT 1 - Orbit

View from above orbital plane
View from above orbital plane
View from above satellite
View from above satellite

Ground track
Ground track

The orbit data is extracted from the following two-line orbital elements,

1 22077U 92052B   14272.52274578 -.00000049  00000-0  52694-4 0  7253
2 22077 066.0844 243.7204 0003589 193.2053 256.6230 12.86495728 39826
Epoch (UTC): 29 September 2014 12:32:45
Eccentricity: 0.0003589
inclination: 66.0844°
perigee height: 1313 km
apogee height: 1318 km
right ascension of ascending node: 243.7204°
argument of perigee: 193.2053°
revolutions per day: 12.86495728
mean anomaly at epoch: 256.6230°
orbit number at epoch: 3982

The dashed part of the orbit path shows where the satellite is in the earth's shadow,  

DLR